Weather in Novy Rozdil

Ukraine / Lviv District     49°28′22″N   24°08′06″E
temp.,
°C
wind,
m/s
gust,
m/s
humid.,
%
clouds,
%
prec.,
mm/h
press.,
hPa
HPBL,
m
24 january, sun
sun2423:00+2se349098 0.0 100168
02:00+2se3391100 0.0 100068
05:00+2se2391100 0.0 99838
08:00+2sse3595100 0.4 998142
11:00+4sse2492100 0.8 999109
14:00+7s4108487 1.2 998809
17:00+4s478761 0.0 999138
20:00+3s229181 0.0 100023
25 january, mon
mon2523:00+1se3391100 0.0 100062
02:00+1e3490100 0.0 99880
05:00+1e31092100 0.0 994279
08:00+1ese41293100 0.4 992490
11:00+2se5894100 0.4 991333
14:00+2s2496100 0.9 991177
17:00+1sw51082100 0.1 993335
20:000w81493100 0.2 994921
26 january, tue
tue2623:00−1w91493100 0.6 996947
02:00−2w7138595 0.2 1000810
05:00−1w101694100 0.8 9981062
08:00−2w81394100 0.6 1002823
11:00−1w91589100 0.5 10041104
14:000w101690100 1.5 10041240
17:00−1w81581100 0.1 10051145
20:00−2w81584100 0.1 10061098
27 january, wed
wed2723:00−2w71484100 0.1 10081045
02:00−3w61484100 0.1 1008776
05:00−3w5148457 0.0 1008673
08:00−3w5138461 0.0 1009735
11:00−1w81384100 0.1 10091027
14:000wnw91388100 0.3 10091235
17:00−1wnw71292100 0.3 1011997
20:00−2wnw71293100 0.8 1012915
28 january, thu
thu2823:00−2wnw61295100 0.5 1013826
02:00−3wnw71394100 1.1 1014901
05:00−2wnw71385100 0.3 1015981
08:00−2wnw51088100 0.3 1016897
11:00−1wnw5886100 0.3 1016841
14:00−1wnw578499 0.4 1014795
17:00−2nw128366 0.0 101421
20:00−3ssw128433 0.0 101421